| time (UTC) | temp C | wind direction | speed KPH | gust KPH | rain 1hr cm | rain 24hr cm | rain mn cm | humidity % | barometer mb |
| 20260504202736 | -17 | 0.0 | 0.0 | 0.00 | 0.81 | 0.81 | |||
| 20260504201516 | -17 | 0.0 | 0.0 | 0.00 | 0.81 | 0.81 | |||
| 20260504200015 | -17 | 0.0 | 0.0 | 0.00 | 0.81 | 0.81 | |||
| 20260504195239 | -17 | 0.0 | 0.0 | 0.00 | 0.81 | 0.81 | |||
| 20260504194036 | -17 | 0.0 | 0.0 | 0.00 | 0.81 | 0.81 | |||
| 20260504193015 | -17 | 0.0 | 0.0 | 0.00 | 0.81 | 0.81 | |||
| 20260504192016 | -17 | 0.0 | 0.0 | 0.00 | 0.81 | 0.81 | |||
| 20260504191016 | -17 | 0.0 | 0.0 | 0.00 | 0.81 | 0.81 | |||
| 20260504190137 | -17 | 0.0 | 0.0 | 0.00 | 0.81 | 0.81 | |||
| 20260504185515 | -17 | 0.0 | 0.0 | 0.00 | 0.81 | 0.81 | |||
| 20260504184515 | -17 | 0.0 | 0.0 | 0.00 | 0.81 | 0.81 | |||
| 20260504183516 | -17 | 0.0 | 0.0 | 0.00 | 0.81 | 0.81 | |||
| 20260504182738 | -17 | 0.0 | 0.0 | 0.00 | 0.81 | 0.81 | |||
| 20260504182015 | -17 | 0.0 | 0.0 | 0.00 | 0.81 | 0.81 | |||
| 20260504181018 | -17 | 0.0 | 0.0 | 0.00 | 0.81 | 0.81 | |||
| 20260504180515 | -17 | 0.0 | 0.0 | 0.00 | 0.81 | 0.81 | |||
| 20260504175535 | -17 | 0.0 | 0.0 | 0.00 | 0.81 | 0.81 | |||
| 20260504174515 | -17 | 0.0 | 0.0 | 0.00 | 0.81 | 0.81 | |||
| 20260504173618 | -17 | 0.0 | 0.0 | 0.00 | 0.81 | 0.81 | |||
| 20260504173036 | -17 | 0.0 | 0.0 | 0.00 | 0.81 | 0.81 | |||
| 20260504172015 | -17 | 0.0 | 0.0 | 0.00 | 0.81 | 0.81 | |||
| 20260504171035 | -17 | 0.0 | 0.0 | 0.81 | 0.81 | 0.81 | |||
| 20260504150516 | 16 | 93 | 27.4 | 41.8 | 0.00 | 0.00 | 0.00 | 84 | 1009.8 |
| 20260504140516 | 16 | 96 | 25.7 | 40.2 | 0.00 | 0.00 | 0.00 | 81 | 1010.3 |
| 20260504130516 | 16 | 85 | 27.4 | 40.2 | 0.00 | 0.00 | 0.00 | 82 | 1011.2 |
| 20260504110515 | 16 | 88 | 22.5 | 37.0 | 0.00 | 0.00 | 0.00 | 84 | 1012.3 |
| 20260504100515 | 17 | 123 | 4.8 | 11.3 | 0.00 | 0.00 | 0.00 | 82 | 1012.3 |
| 20260504081515 | 16 | 302 | 1.6 | 4.8 | 0.00 | 0.00 | 0.00 | 86 | 1012.7 |
| 20260504080515 | 16 | 302 | 3.2 | 8.0 | 0.00 | 0.00 | 0.00 | 86 | 1012.7 |
| 20260504050517 | 15 | 99 | 11.3 | 16.1 | 0.00 | 0.00 | 0.00 | 91 | 1011.5 |
| 20260504045517 | 15 | 112 | 6.4 | 11.3 | 0.00 | 0.00 | 0.00 | 91 | 1011.6 |
| 20260504044517 | 15 | 105 | 9.7 | 14.5 | 0.00 | 0.00 | 0.00 | 91 | 1011.6 |
| 20260504043516 | 15 | 106 | 11.3 | 17.7 | 0.00 | 0.00 | 0.00 | 91 | 1011.5 |
| 20260504042517 | 15 | 104 | 11.3 | 19.3 | 0.00 | 0.00 | 0.00 | 91 | 1011.5 |
| 20260504041516 | 15 | 98 | 8.0 | 16.1 | 0.00 | 0.00 | 0.00 | 91 | 1011.5 |
| 20260504040517 | 15 | 113 | 11.3 | 22.5 | 0.00 | 0.00 | 0.00 | 91 | 1011.5 |
| 20260504035517 | 15 | 102 | 14.5 | 22.5 | 0.00 | 0.00 | 0.00 | 91 | 1011.5 |
| 20260504034517 | 15 | 103 | 16.1 | 25.7 | 0.00 | 0.00 | 0.00 | 91 | 1011.4 |
| 20260504033517 | 15 | 95 | 16.1 | 24.1 | 0.00 | 0.00 | 0.00 | 91 | 1011.4 |
| 20260504032516 | 15 | 111 | 12.9 | 20.9 | 0.00 | 0.00 | 0.00 | 91 | 1011.5 |
| 20260504031557 | 15 | 106 | 16.1 | 24.1 | 0.00 | 0.00 | 0.00 | 91 | 1011.4 |
| 20260504030517 | 15 | 109 | 17.7 | 27.4 | 0.00 | 0.00 | 0.00 | 90 | 1011.5 |
| 20260504025516 | 15 | 108 | 16.1 | 25.7 | 0.00 | 0.00 | 0.00 | 90 | 1011.6 |
| 20260504024537 | 15 | 103 | 17.7 | 27.4 | 0.00 | 0.00 | 0.00 | 90 | 1011.6 |
| 20260504023537 | 15 | 107 | 17.7 | 27.4 | 0.00 | 0.00 | 0.00 | 90 | 1011.7 |
| 20260504022516 | 15 | 101 | 17.7 | 30.6 | 0.00 | 0.00 | 0.00 | 89 | 1011.7 |
| 20260504021516 | 15 | 100 | 19.3 | 29.0 | 0.00 | 0.00 | 0.00 | 89 | 1011.7 |
| 20260504020516 | 15 | 100 | 19.3 | 32.2 | 0.00 | 0.00 | 0.00 | 89 | 1011.9 |
| 20260504015516 | 15 | 94 | 20.9 | 32.2 | 0.00 | 0.00 | 0.00 | 89 | 1011.8 |
| 20260504014516 | 15 | 91 | 19.3 | 29.0 | 0.00 | 0.00 | 0.00 | 88 | 1012.1 |
| 20260504013516 | 15 | 96 | 19.3 | 30.6 | 0.00 | 0.00 | 0.00 | 87 | 1011.9 |
| 20260504012536 | 15 | 95 | 20.9 | 30.6 | 0.00 | 0.00 | 0.00 | 87 | 1011.9 |
| 20260504011516 | 15 | 96 | 20.9 | 37.0 | 0.00 | 0.00 | 0.00 | 86 | 1011.9 |
| 20260504010516 | 15 | 94 | 22.5 | 38.6 | 0.00 | 0.00 | 0.00 | 86 | 1011.9 |
| 20260504005516 | 15 | 95 | 22.5 | 35.4 | 0.00 | 0.00 | 0.00 | 86 | 1011.9 |
| 20260504004516 | 15 | 95 | 24.1 | 35.4 | 0.00 | 0.00 | 0.00 | 86 | 1011.8 |
| 20260504003536 | 15 | 94 | 24.1 | 37.0 | 0.00 | 0.00 | 0.00 | 86 | 1011.9 |
| 20260504002516 | 15 | 96 | 20.9 | 33.8 | 0.00 | 0.00 | 0.00 | 86 | 1012.1 |
| 20260504001516 | 15 | 93 | 19.3 | 40.2 | 0.00 | 0.00 | 0.00 | 86 | 1012.2 |
| 20260504000516 | 15 | 94 | 24.1 | 35.4 | 0.00 | 0.00 | 0.00 | 86 | 1012.2 |
| 20260503235516 | 15 | 89 | 25.7 | 38.6 | 0.00 | 0.00 | 0.00 | 87 | 1012.1 |
| 20260503234516 | 15 | 90 | 24.1 | 40.2 | 0.00 | 0.00 | 0.00 | 87 | 1012.1 |
| 20260503233516 | 15 | 87 | 27.4 | 45.1 | 0.00 | 0.00 | 0.00 | 87 | 1012.2 |
| 20260503232516 | 15 | 92 | 22.5 | 35.4 | 0.00 | 0.00 | 0.00 | 87 | 1012.4 |
| 20260503231516 | 15 | 94 | 27.4 | 38.6 | 0.00 | 0.00 | 0.00 | 87 | 1012.5 |
| 20260503230516 | 15 | 90 | 29.0 | 45.1 | 0.00 | 0.00 | 0.00 | 87 | 1012.6 |
| 20260503225516 | 15 | 89 | 25.7 | 43.5 | 0.00 | 0.00 | 0.00 | 87 | 1012.7 |
| 20260503224536 | 15 | 87 | 25.7 | 41.8 | 0.00 | 0.00 | 0.00 | 88 | 1012.7 |
| 20260503223516 | 15 | 97 | 24.1 | 37.0 | 0.00 | 0.00 | 0.00 | 88 | 1012.8 |
| 20260503222516 | 15 | 95 | 25.7 | 38.6 | 0.00 | 0.00 | 0.00 | 88 | 1012.6 |
| 20260503221516 | 15 | 95 | 22.5 | 45.1 | 0.00 | 0.00 | 0.00 | 88 | 1012.5 |
| 20260503220516 | 15 | 95 | 24.1 | 40.2 | 0.00 | 0.00 | 0.00 | 88 | 1012.7 |
| 20260503215516 | 15 | 96 | 25.7 | 45.1 | 0.00 | 0.00 | 0.00 | 88 | 1012.7 |
| 20260503214516 | 15 | 96 | 27.4 | 43.5 | 0.00 | 0.00 | 0.00 | 88 | 1012.6 |
| 20260503213536 | 15 | 95 | 25.7 | 41.8 | 0.00 | 0.00 | 0.00 | 88 | 1012.6 |
| 20260503212517 | 15 | 93 | 25.7 | 43.5 | 0.00 | 0.00 | 0.00 | 88 | 1012.6 |
| 20260503211537 | 15 | 94 | 27.4 | 41.8 | 0.00 | 0.00 | 0.00 | 86 | 1012.6 |
| 20260503210516 | 15 | 93 | 30.6 | 51.5 | 0.00 | 0.00 | 0.00 | 86 | 1012.5 |
| 20260503205517 | 15 | 98 | 29.0 | 48.3 | 0.00 | 0.00 | 0.00 | 87 | 1012.5 |
| 20260503204517 | 15 | 94 | 29.0 | 46.7 | 0.00 | 0.00 | 0.00 | 87 | 1012.5 |
| 20260503203516 | 15 | 99 | 32.2 | 48.3 | 0.00 | 0.00 | 0.00 | 86 | 1012.4 |